Location: Cork
(51.8990°N, 8.4960°W)
Time: 08:09:29
(UTC+00:00)

Iridium 66 - Visible Passes

Search period start: 14 February 2016 00:00
Search period end: 24 February 2016 00:00
Orbit: 776 x 779 km, 86.4° (Epoch: 13 February)

Date Brightness Start Highest point End Pass type
(mag) Time Alt. Az. Time Alt. Az. Time Alt. Az.
14 Feb 8.1 06:03:57 10° NNE 06:08:29 29° ENE 06:13:01 10° SE visible
14 Feb 6.2 19:06:30 10° SSE 19:11:29 48° E 19:16:29 10° NNE visible
14 Feb 7.9 20:47:56 10° SW 20:52:27 29° WNW 20:56:59 10° NNW visible
15 Feb 8.8 05:30:58 10° NNE 05:34:36 19° ENE 05:38:12 10° ESE visible
15 Feb 6.0 07:10:45 10° N 07:15:59 78° W 07:21:12 10° S visible
15 Feb 6.8 18:33:43 10° SE 18:38:09 29° E 18:42:37 10° NNE visible
15 Feb 7.0 20:13:40 10° SSW 20:18:40 46° W 20:23:44 10° N visible
16 Feb 9.2 04:58:50 10° NE 05:00:34 11° ENE 05:02:17 10° E visible
16 Feb 6.6 06:37:13 10° N 06:42:26 64° E 06:47:36 10° SSE visible
16 Feb 6.2 19:39:49 10° S 19:45:02 77° W 19:50:18 10° N visible
16 Feb 9.0 21:24:06 10° W 21:26:44 14° WNW 21:29:23 10° NNW visible
17 Feb 7.5 06:03:50 10° N 06:08:45 39° ENE 06:13:36 10° SE visible
17 Feb 6.0 19:06:22 10° S 19:11:31 65° E 19:16:42 10° N visible
17 Feb 8.4 20:48:44 10° WSW 20:52:45 22° WNW 20:56:46 10° NNW visible
18 Feb 8.4 05:30:41 10° NNE 05:34:56 24° ENE 05:39:09 10° SE visible
18 Feb 6.5 18:33:19 10° SSE 18:38:07 39° E 18:42:57 10° NNE visible
18 Feb 7.7 20:14:10 10° SW 20:18:54 35° WNW 20:23:41 10° N visible
19 Feb 9.0 04:57:54 10° NNE 05:00:59 15° ENE 05:04:02 10° E visible
19 Feb 6.1 06:37:17 10° N 06:42:34 86° E 06:47:47 10° S visible
19 Feb 6.7 19:40:04 10° SSW 19:45:11 57° W 19:50:21 10° N visible
19 Feb 9.3 21:26:38 10° WNW 21:27:10 10° WNW 21:27:43 10° NW visible
20 Feb 6.9 06:03:49 10° N 06:08:57 52° E 06:14:02 10° SSE visible
20 Feb 6.0 19:06:22 10° S 19:11:35 87° E 19:16:51 10° N visible
20 Feb 8.9 20:49:48 10° WSW 20:53:06 17° WNW 20:56:25 10° NNW visible
21 Feb 7.9 05:30:31 10° NNE 05:35:13 32° ENE 05:39:52 10° SE visible
21 Feb 6.2 18:33:04 10° SSE 18:38:07 53° E 18:43:12 10° NNE visible
21 Feb 8.2 20:14:49 10° SW 20:19:11 26° WNW 20:23:33 10° NNW visible
22 Feb 8.6 04:57:29 10° NNE 05:01:21 20° ENE 05:05:11 10° ESE visible
22 Feb 6.0 06:37:26 10° N 06:42:39 71° W 06:47:50 10° S visible
22 Feb 7.4 19:40:27 10° SSW 19:45:22 42° WNW 19:50:21 10° N visible
23 Feb 9.2 04:25:02 10° NE 04:27:21 13° ENE 04:29:39 10° E visible
23 Feb 6.3 06:03:52 10° N 06:09:07 71° E 06:14:19 10° SSE visible
23 Feb 6.4 19:06:31 10° SSW 19:11:43 70° W 19:16:57 10° N visible
23 Feb 9.2 20:51:20 10° W 20:53:30 12° WNW 20:55:41 10° NW visible
